Wind_Speed
37 36 36 35 35 35 34 34 33 33 32 32 32 32 33 33 33 33 33 33 33 33 33 33 33 33 33 33 34 34 34 33 32 31 32 30 29 28 29 29 30 31 30
37 37 36 36 35 35 35 34 34 33 32 32 32 32 33 33 33 34 34 34 33 33 33 33 33 34 34 34 34 34 33 32 31 30 29 29 28 29 29 30 30 31 30
37 37 37 36 36 36 36 35 34 34 33 32 32 32 33 33 33 34 34 34 33 33 33 33 33 33 33 33 33 32 32 31 31 29 29 29 29 29 29 30 30 29 29
37 37 37 37 36 36 36 36 35 34 34 33 32 32 32 33 33 33 34 33 33 33 33 33 33 32 32 31 31 30 30 31 30 29 29 29 29 30 29 28 27 26 26
37 37 37 37 36 36 36 36 35 35 34 33 32 32 32 32 32 33 33 32 32 33 32 32 31 31 31 30 30 29 30 30 29 29 29 29 29 29 28 27 26 25 25
37 36 36 36 36 36 35 35 35 34 34 33 33 33 32 32 32 32 31 32 31 31 31 31 30 30 30 30 30 30 30 29 28 28 28 28 27 27 26 25 25 25 25
36 36 36 35 36 36 35 35 34 34 34 34 34 34 33 32 32 32 32 31 30 30 30 30 30 29 29 29 29 29 29 28 27 26 26 26 26 25 25 24 23 24 24
34 35 35 35 35 35 35 35 35 34 35 34 34 34 33 32 31 31 31 31 30 30 29 29 29 28 28 28 27 27 27 26 25 25 25 25 24 23 23 22 22 23 23
33 34 34 34 35 35 35 35 35 35 35 34 34 33 33 33 32 31 31 31 30 30 29 29 27 27 27 26 26 26 25 24 24 23 23 23 22 21 21 21 21 22 22
33 33 33 34 34 34 34 34 35 34 34 34 33 33 32 32 32 31 31 31 30 30 29 28 26 25 26 26 25 25 23 23 22 22 22 22 21 20 21 21 21 22 23
32 32 32 33 33 33 33 33 33 33 33 32 32 32 31 31 31 30 30 30 30 29 27 26 25 25 25 25 25 24 23 23 22 22 22 21 20 20 20 21 22 23 23
31 32 33 33 33 32 32 32 32 32 31 31 31 31 31 30 30 30 29 29 28 27 26 25 25 25 24 23 24 24 23 22 22 22 21 20 20 20 21 21 22 23 23
32 32 33 33 33 32 32 32 32 31 31 31 30 30 30 30 29 29 29 28 27 26 25 24 24 24 23 23 24 23 23 22 22 21 20 20 20 20 21 21 22 23 23
31 32 33 33 33 33 32 31 31 30 30 29 28 28 28 28 28 28 28 27 27 25 24 24 24 23 23 23 23 22 22 21 21 21 20 20 20 20 21 21 22 23 24
31 31 32 32 33 33 32 31 30 30 29 28 28 28 27 27 27 27 27 27 26 25 25 24 24 24 24 24 23 23 22 21 21 20 20 20 20 21 21 22 23 23 24
32 31 31 32 32 32 31 31 30 29 28 28 27 27 27 26 26 26 26 26 25 25 25 24 24 24 24 24 23 23 22 22 22 21 20 20 21 21 21 22 22 23 24
31 31 31 31 31 31 31 31 30 29 28 27 26 26 26 25 25 25 25 24 24 25 25 24 24 24 23 23 22 22 22 22 22 21 21 21 21 21 21 22 23 24 24
30 30 30 30 30 30 30 30 29 29 28 27 26 26 25 25 25 24 24 24 24 24 24 24 23 23 23 22 22 22 22 22 22 22 22 21 21 21 21 22 23 24 25
28 29 29 29 29 29 29 29 28 28 28 28 27 26 26 25 25 25 24 23 23 24 24 23 23 23 22 21 22 22 22 22 22 22 21 21 21 21 22 22 24 24 25
27 27 28 28 29 29 28 28 27 27 27 27 27 27 27 26 26 26 25 24 23 22 22 22 22 22 21 21 21 21 21 21 21 21 21 20 21 21 22 23 24 24 24
26 26 26 26 26 27 27 26 26 26 26 26 26 27 27 27 26 26 25 24 23 22 22 21 22 21 21 20 20 20 20 20 20 20 20 20 21 22 22 23 24 24 24
25 25 25 25 26 26 26 25 25 25 25 25 26 26 27 26 26 25 24 23 23 23 22 22 22 21 21 21 21 20 20 20 19 19 20 20 21 21 21 22 23 24 23
24 25 25 26 26 26 26 26 25 25 25 26 26 26 27 27 26 25 25 24 24 23 23 23 22 22 21 21 21 20 20 19 19 19 19 20 20 21 21 22 23 23 22
23 24 24 25 26 26 26 26 26 26 26 26 26 26 27 27 27 27 26 26 25 25 24 23 23 22 22 21 21 20 20 19 19 18 19 19 20 20 20 22 22 22 22
23 23 23 24 24 25 26 26 26 26 26 25 25 25 26 27 27 27 26 26 26 25 25 24 23 23 22 22 21 20 19 19 19 19 19 18 18 19 20 21 21 21 21
22 22 22 22 22 23 24 25 25 25 25 24 24 24 24 25 25 25 26 26 26 25 25 24 24 24 23 22 22 21 20 19 19 19 18 18 18 19 20 20 20 21 21
Wind_Direction
243 245 246 248 251 253 255 258 261 263 266 268 269 271 272 273 274 277 280 282 283 286 288 290 291 292 293 295 296 298 300 301 301 301 301 299 300 300 301 302 302 302 300
242 244 246 248 251 253 255 257 260 262 264 266 268 270 272 273 275 277 280 282 283 284 287 289 290 291 293 294 295 297 299 300 300 300 299 299 300 301 302 303 303 301 300
242 244 246 248 251 253 255 257 259 261 263 266 267 270 272 274 275 278 280 282 282 283 286 288 289 290 292 293 295 296 298 299 300 299 298 299 300 300 302 303 304 303 302
243 244 246 248 251 253 255 257 259 261 263 266 267 270 272 275 277 279 281 281 282 283 285 287 289 290 291 292 294 296 298 299 299 298 298 298 299 300 301 302 304 304 304
243 245 246 248 250 253 255 257 259 261 263 265 267 269 272 274 277 280 281 281 283 284 284 286 289 290 290 291 292 294 297 298 298 298 298 299 300 300 301 302 304 304 305
244 246 247 249 250 253 255 257 259 261 263 265 267 269 271 273 276 279 281 282 283 284 285 286 288 290 290 290 291 293 296 297 297 298 298 299 301 301 302 304 303 303 305
244 245 247 250 251 253 254 257 259 260 263 265 267 268 270 272 274 277 279 282 283 284 285 286 287 288 288 288 290 292 295 295 296 299 300 301 301 302 302 303 304 305 306
244 246 248 249 251 253 255 256 258 261 263 264 266 267 268 270 273 276 277 279 282 284 286 287 286 286 287 287 288 291 293 294 295 298 300 301 303 304 305 306 306 308 308
245 247 248 250 251 253 255 257 259 261 262 262 264 266 267 269 270 273 276 278 280 283 285 286 286 284 284 285 287 290 292 295 298 300 303 304 304 306 308 308 309 311 311
246 247 249 251 252 253 254 256 259 260 261 262 262 264 267 268 270 271 273 275 278 280 281 283 284 284 283 284 286 287 288 291 294 297 301 303 305 306 309 312 312 312 312
246 247 249 251 252 253 254 255 257 258 260 261 262 264 266 267 269 271 273 275 276 277 277 279 281 284 284 284 283 283 285 288 291 294 298 300 302 303 308 311 313 313 314
248 248 249 250 252 253 254 255 256 257 258 259 261 263 265 266 268 271 273 275 275 275 275 275 278 281 282 282 282 283 284 286 289 292 296 297 299 301 304 308 312 315 316
251 250 249 250 251 253 254 255 255 256 257 259 261 262 264 266 267 270 272 274 274 273 273 273 275 277 279 282 282 281 282 283 286 289 292 294 296 299 301 305 309 313 315
251 251 250 250 251 252 253 254 255 256 257 258 259 261 263 265 266 268 270 271 272 271 271 272 272 274 277 280 280 279 280 281 283 285 288 292 295 298 301 305 308 311 314
251 251 251 250 251 252 252 252 253 254 255 257 259 260 262 263 265 268 269 269 268 269 270 270 270 273 276 278 277 277 277 278 280 282 285 289 293 297 300 304 309 311 313
251 252 252 252 251 250 250 249 250 252 255 257 259 260 261 263 265 266 266 265 266 268 269 268 269 272 274 275 275 276 276 277 278 280 283 288 292 296 300 304 308 311 312
250 250 251 251 249 249 248 248 249 251 253 256 258 259 260 261 263 263 263 263 266 267 267 266 267 271 273 273 273 275 276 277 278 280 282 286 290 294 299 303 307 310 312
249 249 249 249 248 247 247 247 248 250 252 254 256 257 258 260 260 261 261 262 266 268 268 267 268 271 273 272 271 273 275 276 277 278 281 284 288 293 298 302 306 309 312
247 248 247 247 246 246 246 247 248 249 251 253 254 256 258 258 258 259 261 264 268 269 268 267 268 271 273 271 271 273 274 274 275 276 278 282 287 293 297 302 306 309 311
247 247 247 246 246 246 245 246 247 249 251 252 254 255 256 257 257 259 260 263 266 269 269 268 268 270 271 270 272 274 274 274 273 274 277 282 287 292 297 301 305 309 310
246 245 245 246 246 245 245 246 248 250 252 253 254 254 255 255 256 257 260 263 265 267 267 267 269 270 268 268 272 274 274 273 273 274 276 281 287 292 297 301 306 309 309
245 244 245 246 246 245 244 246 247 249 252 253 255 255 254 254 254 255 258 260 262 263 264 265 267 268 268 270 272 273 273 272 273 274 277 281 287 291 296 300 305 308 308
247 246 246 246 245 245 245 245 247 249 252 253 255 256 255 254 253 253 256 258 260 260 262 263 264 265 266 269 271 271 272 271 273 276 277 281 287 291 296 300 304 305 306
249 249 247 246 245 245 246 246 247 249 251 253 254 254 254 253 252 252 254 256 256 257 258 259 259 260 263 266 268 270 270 271 272 275 279 284 289 293 296 301 304 303 304
248 248 247 245 245 245 246 247 248 250 251 253 253 253 253 252 251 251 253 254 253 253 255 256 257 258 261 264 265 266 266 267 270 273 277 282 287 294 299 303 303 303 304
246 246 245 246 246 246 247 247 248 250 252 252 252 252 252 252 252 252 252 252 250 251 253 255 256 258 259 260 262 263 263 265 268 270 275 282 289 295 300 303 304 305 305
Height
5696 5698 5701 5703 5705 5706 5708 5708 5709 5709 5709 5708 5708 5707 5706 5705 5704 5703 5701 5699 5697 5695 5693 5691 5688 5685 5682 5679 5675 5672 5668 5664 5660 5657 5653 5649 5646 5642 5639 5636 5632 5628 5625
5687 5689 5692 5694 5696 5698 5699 5700 5700 5700 5700 5700 5699 5698 5698 5697 5696 5694 5693 5691 5689 5687 5685 5682 5680 5677 5674 5670 5667 5664 5660 5656 5653 5650 5647 5643 5640 5636 5633 5629 5625 5622 5618
5677 5680 5683 5685 5687 5689 5690 5690 5691 5691 5691 5691 5691 5690 5689 5688 5687 5686 5684 5682 5680 5678 5676 5674 5671 5668 5666 5662 5659 5656 5653 5649 5646 5643 5640 5637 5634 5630 5627 5623 5619 5615 5612
5668 5671 5673 5676 5677 5679 5680 5681 5682 5683 5683 5683 5682 5682 5681 5680 5679 5677 5675 5673 5671 5669 5667 5665 5663 5660 5658 5655 5652 5649 5646 5643 5640 5637 5634 5631 5628 5624 5620 5617 5614 5610 5606
5659 5662 5664 5666 5668 5669 5671 5672 5673 5673 5674 5674 5674 5673 5673 5672 5671 5669 5666 5664 5662 5660 5658 5656 5654 5652 5650 5647 5645 5642 5640 5637 5634 5631 5628 5625 5622 5618 5615 5611 5608 5604 5601
5649 5652 5654 5656 5658 5660 5661 5663 5664 5664 5665 5665 5665 5665 5664 5663 5662 5660 5658 5656 5654 5652 5650 5648 5646 5644 5642 5640 5638 5636 5633 5630 5628 5625 5622 5619 5616 5612 5609 5606 5602 5599 5596
5640 5642 5645 5647 5649 5651 5652 5653 5654 5655 5656 5656 5656 5656 5655 5655 5653 5652 5650 5648 5646 5645 5643 5641 5639 5637 5635 5633 5631 5629 5626 5624 5622 5619 5616 5613 5610 5607 5604 5600 5597 5593 5591
5631 5633 5635 5637 5639 5641 5642 5644 5645 5646 5646 5647 5647 5647 5646 5646 5645 5644 5642 5640 5639 5637 5635 5634 5632 5630 5628 5626 5625 5623 5620 5618 5616 5614 5611 5608 5605 5602 5598 5595 5592 5589 5586
5622 5624 5626 5628 5630 5631 5633 5634 5635 5636 5637 5637 5637 5638 5637 5637 5636 5635 5634 5633 5631 5630 5628 5627 5625 5623 5622 5620 5619 5617 5615 5613 5611 5608 5606 5603 5600 5597 5594 5591 5588 5585 5583
5613 5615 5617 5619 5620 5622 5623 5624 5625 5626 5627 5628 5628 5628 5628 5628 5628 5627 5626 5625 5624 5622 5621 5619 5618 5617 5615 5614 5612 5611 5609 5608 5606 5604 5601 5598 5596 5593 5590 5588 5585 5582 5579
5603 5605 5607 5609 5611 5612 5614 5615 5616 5617 5618 5618 5619 5620 5620 5619 5619 5618 5617 5616 5615 5614 5613 5612 5611 5610 5609 5608 5606 5605 5604 5602 5600 5598 5596 5594 5592 5589 5587 5584 5581 5578 5575
5594 5596 5598 5600 5602 5603 5604 5605 5607 5607 5608 5609 5610 5610 5611 5611 5610 5610 5609 5608 5607 5607 5606 5605 5605 5604 5603 5601 5600 5599 5598 5596 5595 5593 5592 5590 5587 5585 5583 5580 5577 5574 5570
5585 5587 5589 5590 5592 5594 5595 5596 5597 5599 5600 5600 5601 5602 5602 5602 5602 5601 5601 5600 5599 5599 5599 5598 5598 5597 5596 5595 5594 5593 5592 5591 5590 5588 5587 5585 5583 5581 5578 5576 5573 5570 5566
5576 5577 5579 5581 5583 5585 5586 5587 5589 5590 5591 5592 5592 5593 5593 5593 5593 5593 5593 5592 5592 5592 5591 5591 5591 5590 5590 5589 5588 5587 5586 5585 5584 5583 5581 5580 5578 5576 5574 5571 5568 5565 5562
5567 5568 5570 5572 5573 5575 5577 5578 5580 5582 5583 5584 5584 5585 5585 5586 5586 5585 5585 5585 5585 5585 5584 5584 5584 5584 5583 5583 5582 5581 5580 5580 5579 5578 5576 5575 5573 5571 5569 5566 5564 5560 5557
5557 5559 5561 5562 5564 5566 5568 5570 5571 5573 5574 5575 5576 5577 5577 5578 5577 5577 5577 5577 5577 5577 5577 5577 5577 5577 5576 5576 5575 5575 5574 5574 5573 5572 5571 5570 5568 5566 5564 5561 5559 5556 5553
5548 5550 5551 5553 5555 5557 5559 5561 5563 5565 5566 5567 5568 5569 5569 5570 5570 5570 5570 5570 5570 5570 5570 5570 5570 5570 5569 5569 5569 5568 5568 5567 5567 5566 5565 5564 5562 5560 5558 5556 5553 5551 5548
5538 5540 5542 5544 5546 5548 5550 5552 5554 5556 5558 5559 5560 5561 5562 5562 5562 5562 5562 5563 5563 5563 5563 5563 5563 5563 5563 5562 5562 5562 5561 5561 5560 5559 5559 5558 5556 5555 5553 5551 5548 5545 5542
5529 5531 5533 5535 5537 5539 5541 5543 5545 5547 5549 5551 5552 5553 5554 5554 5555 5555 5555 5556 5556 5556 5556 5556 5556 5556 5556 5555 5555 5555 5554 5554 5553 5553 5553 5552 5551 5549 5547 5545 5543 5540 5537
5520 5522 5524 5526 5528 5530 5533 5535 5537 5539 5541 5542 5544 5545 5546 5546 5547 5548 5548 5549 5549 5549 5549 5549 5549 5549 5549 5549 5548 5548 5548 5547 5547 5547 5547 5546 5545 5543 5542 5540 5537 5534 5531
5512 5514 5516 5518 5520 5522 5525 5527 5529 5531 5533 5534 5535 5536 5537 5538 5539 5540 5541 5542 5542 5542 5543 5543 5543 5543 5543 5542 5542 5542 5541 5541 5541 5541 5541 5540 5539 5538 5536 5534 5531 5528 5525
5505 5507 5509 5511 5513 5515 5517 5519 5521 5523 5525 5526 5527 5528 5529 5530 5532 5533 5534 5534 5535 5535 5536 5536 5536 5536 5536 5536 5536 5536 5536 5535 5535 5535 5535 5534 5533 5532 5530 5528 5526 5523 5520
5498 5499 5501 5503 5505 5507 5509 5512 5513 5515 5517 5518 5519 5520 5521 5522 5524 5525 5526 5527 5527 5528 5529 5529 5530 5530 5530 5530 5530 5530 5530 5530 5530 5529 5529 5528 5527 5526 5524 5522 5520 5517 5515
5490 5492 5493 5495 5497 5499 5501 5503 5505 5507 5508 5509 5510 5511 5513 5514 5515 5516 5517 5518 5519 5520 5521 5522 5523 5523 5523 5524 5524 5524 5524 5524 5524 5524 5523 5522 5521 5520 5518 5516 5514 5512 5509
5483 5484 5486 5487 5489 5491 5493 5495 5497 5498 5500 5501 5502 5503 5504 5505 5506 5508 5509 5510 5511 5512 5514 5515 5515 5516 5517 5517 5517 5518 5518 5518 5518 5518 5517 5517 5516 5514 5513 5511 5509 5506 5504
5476 5477 5479 5480 5482 5483 5485 5486 5488 5490 5491 5492 5493 5494 5495 5497 5498 5499 5500 5501 5503 5504 5506 5507 5508 5509 5510 5510 5511 5511 5512 5512 5512 5512 5512 5511 5510 5508 5507 5505 5503 5501 5499